ENVISAT

Last updated on Fri Jul 10 2026 00:02:13 GMT+0000 (Coordinated Universal Time)

1 27386U 02009A 26190.31164921 .00000044 00000+0 28197-4 0 9990 2 27386 98.3844 141.1379 0001361 84.3195 88.5345 14.39069929276663
UTC large
Height (km)
Speed (km/s)
/
Latitude / Longitude
Inclination (degrees)
Orbital Period (minutes)
Azimuth
Elevation
Range (km)
Doppler Factor

Next 0 passes for location: London (51.5072 / 0.1276)

No passes found over London.
ENVISAT